STARLINK-30437, 58036

Orbit data source: Space-Track

STARLINK-30437, 58036 is a payload satellite owned by SpaceX/Seattle (US) in LEO that was launched on Mon, 09 Oct 2023 UTC via an FALCON 9 launch vehicle from the Air Force Western Test Range (AFWTR). Payload-class satellites include a variety of spacecraft equipped with specific instruments for various scientific and technological missions. These include communications satellites like Starlink; space stations such as the ISS; scientific satellites like the Hubble; Earth observation satellites from companies like Planet Labs, Umbra, and HawkEye 360; GPS; miniature CubeSats for education and research; and military/defense satellites.

Loading next visibility...
Identifier
58036, 2023-156J
Orbit
LEO
Country
Flag of USUS
Related business
Manufacturer
SpaceX/Seattle
Mission
Operational Commercial Communications
Bus & Motor
STARLINK V2M, Unknown motor
Mass
730 kg wet, ~700 kg dry
Launch date (UTC)
2023-10-09 (2 years ago)
Launch vehicle
FALCON 9
Launch site
Air Force Western Test Range (AFWTR)
Object type
Payload
Rocket body
Debris
Shape & HBR
Box + 2 Pan, 17.7 m
Radar Cross Section
33.884 m², Large (>1 m²)

Expand to show TLE details & history
Last TLE update: 1 day ago

TLE from 1 day ago
0 STARLINK-30437
1 58036U 23156J   25348.61883531 -.00001843  00000-0 -50175-4 0  9996
2 58036  53.1600 113.3445 0001221  94.2974 265.8166 15.30169661123245
Epoch: 2025-12-14T14:51Z
TLE epoch observation values (Epoch: 2025-12-14T14:51:07.370Z)
Latitude
-0.00006°
Longitude
167.03459°
Altitude
476.267 km
Speed
7.629 km/s
True Right ascension
07h 33m 22s
True Declination
0° 00' 00"
Sunlit
Object was in full shadow at epoch
Visualization orbit readout
Latitude
Unknown
Longitude
Unknown
Altitude
Unknown
Speed
Unknown
Apparent Right ascension
Unknown
Apparent Declination
Unknown
Sunlit
N/A
Visualization observer readout
Local Sidereal Time
13:24:49
Azimuth
Unknown
Elevation
Unknown
Doppler factor
Unknown
Orbital elements
Apogee altitude
476.399 km
Perigee altitude
474.725 km
Semi-major axis
6,853.699 km
Eccentricity
0.00012
Inclination
53.16°
RAAN
113.3445°
Arg. of periapsis
94.2974°
True anomaly
265.80265°
Mean anomaly
265.8166°
Eccentric anomaly
265.80962°
Mean motion
3.82521 °/min
Orbital period
94.11 mins
BSTAR
-0.000050175
Loading maneuver chart data...
Computing Atmospheric mass density...
Loading historical data...
Loading historical data...
Loading historical data...
Loading historical data...
Loading historical data...
Loading historical data...
Loading historical data...

Documentation

Showing up to 5 results
|